Regional Weather Roundup
Issued by NWS Newport/Morehead, NC

Home | Current Version | Previous Version | Text Only | Print | Product List | Glossary On
Versions: 1 2 3 4 5 6 7 8 9 10 11 12 13 14 15 16 17 18 19 20 21 22 23 24 25 26 27 28 29 30 31 32 33 34 35 36 37 38 39 40 41 42 43 44 45 46 47 48 49 50
000
ASUS42 KMHX 232125
RWRMHX
WEATHER ROUNDUP FOR EASTERN NORTH CAROLINA
NATIONAL WEATHER SERVICE NEWPORT/MOREHEAD CITY NC
400 PM EST THU FEB 23 2017

NOTE: "FAIR" INDICATES FEW OR NO CLOUDS BELOW 12,000 FEET
WITH NO SIGNIFICANT WEATHER AND/OR OBSTRUCTIONS TO VISIBILITY

NCZ015>017-031-032-045>047-102-103-232200-
NORTH COAST

CITY           SKY/WX    TMP DP  RH WIND       PRES   REMARKS
EDENTON        CLOUDY    71  56  59 SE5       29.90S
ELIZABETH CITY CLOUDY    68  55  63 SE9       29.91F
KITTY HAWK     NOT AVBL
MANTEO         MOSUNNY   65  55  69 E7        29.92F

$$

NCZ045>047-081-094-103-104-232200-
CENTRAL COAST

CITY           SKY/WX    TMP DP  RH WIND       PRES   REMARKS
FRISCO         CLOUDY    69  58  67 N5        29.91S

$$

NCZ095-097-098-100-101-232200-
SOUTHERN COAST

CITY           SKY/WX    TMP DP  RH WIND       PRES   REMARKS
BEAUFORT       MOSUNNY   71  57  61 SE7       29.89F
CEDAR ISLAND   NOT AVBL
JACKSONVILLE   SUNNY     72  58  61 SE15      29.87S
PINEY ISLAND   MOCLDY   N/A N/A N/A NE7       29.89F
WILMINGTON     SUNNY     70  58  65 E9        29.87F


$$

NCZ011>013-027>030-043-044-078>080-089-090>093-098-232200-
COASTAL PLAIN

CITY           SKY/WX    TMP DP  RH WIND       PRES   REMARKS
AHOSKIE          N/A     72  51  48 S8        29.88S
CLINTON        MOSUNNY   73  56  53 SE3       29.86F
ELIZABETHTOWN  MOSUNNY   75  54  49 SE8       29.85F
GOLDSBORO      PTSUNNY   74  51  44 CALM      29.85S
GREENVILLE     CLOUDY    72  54  53 E8        29.90S
HAVELOCK       NOT AVBL
KENANSVILLE    PTSUNNY   75  52  43 SE8       29.87R
KINSTON        MOSUNNY   75  50  41 SE5       29.88S
NEW BERN       MOSUNNY   70  59  68 E10       29.89S
RICHLANDS      MOSUNNY   72  55  55 SE7       29.87F
ROCKY MOUNT    PTSUNNY   74  51  44 SE9       29.87F
WASHINGTON     CLOUDY    71  55  57 SE14      29.89S
WHITEVILLE     MOSUNNY   74  55  52 SE9G16    29.85S

$$

AMZ130-135-150-152-154-156-158-170-250-252-270-ANZ085-086-088-633-658-670-232200-
MARINE OBSERVATIONS

STATION/POSITION TIME  TEMP    WIND        PRES    WAVE   SWELL
                       AIR SEA DIR/SP/G            HT/PER HT/PER
                 (UTC) (F)     (DEG/KT/KT) (MB)    (FT/S) (FT/S)
CHESAPEAKE LIGHT NOT AVBL
64 E VA BEACH    2050   58 55  130/  4/  6 1013.1    3/11   3/11
DUCK             2100   56 50  140/  7/  8 1012.5
2 E DUCK         2100      52                N/A     3/10   2/11
OREGON INLET     2100   60 54   60/  6/  8 1012.9
13E OREGON INLT  NOT AVBL
HATTERAS CG      2100   63 61  350/  3/  4 1012.5
DIAMOND BUOY     2050   70 73  150/ 12/ 14 1012.6    4/ 5   3/ 6
CAPE LOOKOUT     2100   65     100/ 11/ 12 1011.7
BEAUFORT LAB     2100   67 56  120/  9/ 13 1011.0
30 SE NEW RVR IN 2108   68     120/  4/  8 1011.5
30 SE NEW RVR IN 2113      69                N/A     5/ 7   2/11
27 SE WRIGHTSVLE 2108   69 67  110/  8/ 12 1010.6
5 SE WRIGHTSVLE  2108   60 58   30/  6/  8 1011.2
225 S CAPE HAT   2050   69 70  100/ 21/ 27 1010.1    9/ 8   3/11
41 SE CHARLESTON 2050   70 70   80/ 14/ 16 1008.4    9/ 8   8/ 8

$$



USA.gov is the U.S. government's official web portal to all federal, state and local government web resources and services.